Location: Newark
(31.5350°N, 35.0986°E)
Time: 07:00:18
(UTC+00:00)

SR - Pass Details

Date: 23 October 2019
Orbit: 574 x 882 km, 66.7° (Epoch: 14 November)

Event Time Altitude Azimuth Distance (km) Brightness Sun altitude
Rises 04:41:39 0° 331° (NNW) 3,478 ? 10.1°
Reaches altitude 10° 04:44:10 10° 329° (NNW) 2,542 ? 10.6°
Maximum altitude 04:50:03 66° 248° (WSW) 947 ? 11.8°
Drops below altitude 10° 04:55:45 10° 167° (SSE) 2,459 ? 12.9°
Sets 04:58:09 0° 164° (SSE) 3,357 ? 13.4°
